FW1501 Weather Reports


Display with metric or nautical units.
time (UTC)temp
F
wind
direction
speed
MPH
gust
MPH
rain 1hr
in
rain 24hr
in
rain mn
in
humidity
%
barometer
mb
20260506073042 0 194 0.0 0.0 0.00 0.00 0.00 1013.6
20260506071537 0 193 0.0 0.0 0.00 0.00 0.00 1013.7
20260506061521 0 190 0.0 0.0 0.00 0.00 0.00 1013.4
20260506050103 0 229 0.0 0.0 0.00 0.00 0.00 1013.3
20260506044608 0 235 0.0 0.0 0.00 0.00 0.00 1013.4
20260506043054 0 226 0.0 0.0 0.00 0.00 0.00 1013.1
20260506041603 0 225 0.0 0.0 0.00 0.00 0.00 1013.1
20260506040047 0 209 0.0 0.0 0.00 0.00 0.00 1012.8
20260506034539 0 208 0.0 0.0 0.00 0.00 0.00 1012.7
20260506033034 0 192 0.0 0.0 0.00 0.00 0.00 1012.6
20260506031529 0 191 0.0 0.0 0.00 0.00 0.00 1012.7
20260506030026 0 225 0.0 0.0 0.00 0.00 0.00 1012.8
20260506024520 0 225 0.0 0.0 0.00 0.00 0.00 1012.9
20260506023015 0 223 0.0 0.0 0.00 0.00 0.00 1013.1
20260506021511 0 331 0.0 0.0 0.00 0.00 0.00 1013.1
20260506020006 0 205 0.0 0.0 0.00 0.00 0.00 1013.1
20260506014507 0 157 0.0 0.0 0.00 0.00 0.00 1012.9
20260506013100 0 223 0.0 0.0 0.00 0.00 0.00 1012.8
20260506011600 0 54 0.0 0.0 0.00 0.00 0.00 1012.9
20260506010052 0 227 0.0 0.0 0.00 0.00 0.00 1012.7
20260506004547 0 280 0.0 0.0 0.00 0.00 0.00 1012.5
20260506003046 0 273 0.0 0.0 0.00 0.00 0.00 1012.3
20260506001546 0 273 0.0 0.0 0.00 0.01 0.00 1012.0
20260506000051 0 273 0.0 0.0 0.00 0.01 0.00 1011.9
20260505234539 0 251 0.0 0.0 0.00 0.01 0.00 1011.6
20260505233032 0 304 0.0 0.0 0.00 0.01 0.00 1011.4
20260505231531 0 167 0.0 0.0 0.00 0.02 0.00 1011.2
20260505230041 0 164 0.0 0.0 0.00 0.02 0.00 1011.1
20260505224537 0 164 0.0 0.0 0.00 0.02 0.00 1010.9
20260505223036 0 134 0.0 0.0 0.00 0.02 0.00 1010.8
20260505221529 0 238 0.0 0.0 0.00 0.02 0.00 1010.8
20260505220029 0 81 0.0 0.0 0.00 0.02 0.00 1010.7
20260505214528 0 96 0.0 0.0 0.00 0.02 0.00 1010.5
20260505213029 0 226 0.0 0.0 0.00 0.02 0.00 1010.8
20260505211531 0 226 0.0 0.0 0.00 0.05 0.00 1010.9
20260505210021 0 226 0.0 0.0 0.00 0.05 0.00 1011.0
20260505204517 0 226 0.0 0.0 0.00 0.05 0.00 1011.2
20260505203112 0 212 0.0 0.0 0.00 0.05 0.00 1011.4
20260505201507 0 212 0.0 0.0 0.00 0.06 0.00 1011.3
20260505200004 0 204 0.0 0.0 0.00 0.06 0.00 1011.2
20260505194501 0 221 0.0 0.0 0.00 0.06 0.00 1011.2
20260505193103 0 248 0.0 0.0 0.00 0.06 0.00 1011.3
20260505191603 0 202 0.0 0.0 0.00 0.06 0.00 1011.1
20260505190058 0 219 0.0 0.0 0.00 0.06 0.00 1011.0
20260505184546 0 220 0.0 0.0 0.00 0.06 0.00 1011.2
20260505183041 0 210 0.0 0.0 0.00 0.06 0.00 1011.3
20260505181549 0 173 0.0 0.0 0.00 0.06 0.00 1011.4
20260505180032 0 265 0.0 0.0 0.00 0.06 0.00 1011.5
20260505174536 0 291 0.0 0.0 0.00 0.06 0.00 1011.4
20260505173023 0 248 0.0 0.0 0.00 0.06 0.00 1011.5
20260505171530 0 244 0.0 0.0 0.00 0.09 0.00 1011.5
20260505170016 0 202 0.0 0.0 0.00 0.09 0.00 1011.3
20260505164510 0 195 0.0 0.0 0.00 0.09 0.00 1011.7
20260505163009 0 249 0.0 0.0 0.00 0.09 0.00 1011.5
20260505161502 0 218 0.0 0.0 0.00 0.09 0.00 1011.2
20260505153048 0 236 0.0 0.0 0.00 0.09 0.00 1010.9
20260505151543 0 209 0.0 0.0 0.00 0.09 0.00 1010.6
20260505124600 0 198 0.0 0.0 0.00 0.09 0.00 1008.5
20260505123100 0 190 0.0 0.0 0.00 0.09 0.00 1008.4
20260505121551 0 227 0.0 0.0 0.00 0.09 0.00 1008.2
20260505120104 0 193 0.0 0.0 0.00 0.09 0.00 1008.0
20260505114542 0 200 0.0 0.0 0.00 0.09 0.00 1007.8
20260505113038 0 232 0.0 0.0 0.00 0.09 0.00 1007.6
20260505111536 0 253 0.0 0.0 0.00 0.09 0.00 1007.4
20260505101515 0 211 0.0 0.0 0.00 0.09 0.00 1006.4
20260505100013 0 232 0.0 0.0 0.00 0.09 0.00 1006.1
20260505094507 0 153 0.0 0.0 0.00 0.09 0.00 1005.9
20260505093002 0 247 0.0 0.0 0.00 0.09 0.00 1005.5
20260505091559 0 213 0.0 0.0 0.00 0.09 0.00 1005.3
20260505090056 0 207 0.0 0.0 0.00 0.09 0.00 1005.1
20260505084600 0 195 0.0 0.0 0.00 0.09 0.00 1004.8
20260505083056 0 232 0.0 0.0 0.00 0.09 0.00 1004.4
20260505081540 0 216 0.0 0.0 0.00 0.09 0.00 1004.0
20260505080038 0 208 0.0 0.0 0.00 0.09 0.00 1003.7
20260505074535 0 196 0.0 0.0 0.00 0.09 0.00 1003.4